User: anonymous
Location: Unspecified
(0.0000°N, 0.0000°E)
Time: 16:15:07
(UTC+00:00)
Language:

STSS DEMO 1 (USA 208) - Orbit

View from above orbital plane
View from above orbital plane
View from above satellite
View from above satellite

Ground track
Ground track

The orbit data is extracted from the following two-line orbital elements,

1 35937U 09052A   14256.81313977 0.00000000  00000-0  00000-0 0    03
2 35937  57.9887 227.2143 0010464 350.4977   9.5022 12.79125920    00
Epoch (UTC): 13 September 2014 19:30:55
Eccentricity: 0.0010464
inclination: 57.9887°
perigee height: 1337 km
apogee height: 1353 km
right ascension of ascending node: 227.2143°
argument of perigee: 350.4977°
revolutions per day: 12.79125920
mean anomaly at epoch: 9.5022°
orbit number at epoch: 0

The dashed part of the orbit path shows where the satellite is in the earth's shadow,  

DLR